Hourly Weather Bolshoe Barankovo

Today, 28 July, Wednesday

Time Temperature Precipitation Wind Pressure Humidity
00:00 +17°C° 0 mm 2 mps 750 mmHg 81%
01:00 +17°C° 0 mm 2 mps 750 mmHg 80%
02:00 +17°C° 0 mm 2 mps 749 mmHg 78%
03:00 +17°C° 0 mm 2 mps 749 mmHg 77%
04:00 +17°C° 0 mm 2 mps 749 mmHg 76%
05:00 +18°C° 0 mm 2 mps 749 mmHg 75%
06:00 +20°C° 0 mm 2 mps 748 mmHg 67%
07:00 +22°C° 0 mm 3 mps 748 mmHg 60%
08:00 +25°C° 0 mm 3 mps 748 mmHg 53%
09:00 +26°C° 0 mm 4 mps 748 mmHg 48%
10:00 +28°C° 0 mm 4 mps 747 mmHg 43%
11:00 +29°C° 0 mm 4 mps 747 mmHg 38%
12:00 +29°C° 0.1 mm 4 mps 747 mmHg 43%
13:00 +28°C° 0.1 mm 5 mps 746 mmHg 48%
14:00 +27°C° 0 mm 5 mps 746 mmHg 55%
15:00 +25°C° 0.1 mm 5 mps 746 mmHg 59%
16:00 +23°C° 0.1 mm 5 mps 746 mmHg 63%
17:00 +22°C° 0.1 mm 4 mps 745 mmHg 67%
18:00 +21°C° 0 mm 4 mps 745 mmHg 74%
19:00 +19°C° 0 mm 3 mps 745 mmHg 80%
20:00 +18°C° 0 mm 2 mps 744 mmHg 87%
21:00 +18°C° 0 mm 2 mps 744 mmHg 90%
22:00 +17°C° 0 mm 2 mps 744 mmHg 93%
23:00 +17°C° 0 mm 2 mps 744 mmHg 96%

Tomorrow, 29 July, Thursday

Time Temperature Precipitation Wind Pressure Humidity
00:00 +16°C° 0 mm 2 mps 743 mmHg 96%
01:00 +16°C° 0 mm 1 mps 743 mmHg 97%
02:00 +15°C° 0 mm 1 mps 743 mmHg 98%
03:00 +16°C° 0 mm 1 mps 742 mmHg 97%
04:00 +16°C° 0 mm 1 mps 742 mmHg 96%
05:00 +16°C° 0 mm 1 mps 742 mmHg 95%
06:00 +19°C° 0 mm 1 mps 742 mmHg 86%
07:00 +20°C° 0 mm 2 mps 742 mmHg 77%
08:00 +23°C° 0 mm 2 mps 742 mmHg 68%
09:00 +24°C° 0 mm 2 mps 741 mmHg 63%
10:00 +25°C° 0 mm 3 mps 741 mmHg 57%
11:00 +27°C° 0 mm 3 mps 741 mmHg 52%
12:00 +26°C° 0.4 mm 3 mps 741 mmHg 59%
13:00 +25°C° 0.4 mm 3 mps 741 mmHg 67%
14:00 +23°C° 0.4 mm 4 mps 741 mmHg 75%
15:00 +24°C° 0.1 mm 3 mps 740 mmHg 72%
16:00 +24°C° 0.1 mm 3 mps 740 mmHg 70%
17:00 +24°C° 0.1 mm 3 mps 740 mmHg 68%
18:00 +22°C° 0 mm 3 mps 740 mmHg 74%
19:00 +20°C° 0 mm 2 mps 740 mmHg 79%
20:00 +19°C° 0 mm 2 mps 740 mmHg 85%
21:00 +19°C° 0 mm 2 mps 740 mmHg 87%
22:00 +18°C° 0 mm 2 mps 740 mmHg 89%
23:00 +17°C° 0 mm 2 mps 740 mmHg 91%

Day after tomorrow, 30 July, Friday

Time Temperature Precipitation Wind Pressure Humidity
00:00 +17°C° 0 mm 2 mps 740 mmHg 93%
01:00 +17°C° 0 mm 2 mps 740 mmHg 94%
02:00 +16°C° 0 mm 2 mps 740 mmHg 96%
03:00 +17°C° 0 mm 2 mps 740 mmHg 96%
04:00 +17°C° 0 mm 2 mps 740 mmHg 95%
05:00 +17°C° 0 mm 2 mps 740 mmHg 95%
06:00 +19°C° 0 mm 2 mps 740 mmHg 84%
07:00 +21°C° 0 mm 2 mps 740 mmHg 74%
08:00 +24°C° 0 mm 2 mps 740 mmHg 64%
09:00 +25°C° 0 mm 3 mps 740 mmHg 58%
10:00 +27°C° 0 mm 3 mps 740 mmHg 52%
11:00 +28°C° 0 mm 3 mps 740 mmHg 47%
12:00 +27°C° 0 mm 4 mps 739 mmHg 48%
13:00 +27°C° 0 mm 4 mps 739 mmHg 49%
14:00 +26°C° 0 mm 5 mps 739 mmHg 50%
15:00 +26°C° 0 mm 4 mps 739 mmHg 51%
16:00 +25°C° 0 mm 4 mps 739 mmHg 51%
17:00 +25°C° 0 mm 4 mps 739 mmHg 52%
18:00 +22°C° 0 mm 3 mps 739 mmHg 56%
19:00 +21°C° 0 mm 3 mps 739 mmHg 59%
20:00 +19°C° 0 mm 2 mps 739 mmHg 63%
21:00 +19°C° 0 mm 2 mps 739 mmHg 64%
22:00 +19°C° 0 mm 2 mps 739 mmHg 65%
23:00 +19°C° 0 mm 3 mps 739 mmHg 67%

31 July, Saturday

Time Temperature Precipitation Wind Pressure Humidity
00:00 +18°C° 0 mm 3 mps 739 mmHg 72%
01:00 +17°C° 0 mm 3 mps 739 mmHg 77%
02:00 +16°C° 0 mm 3 mps 738 mmHg 83%
03:00 +16°C° 0 mm 3 mps 738 mmHg 80%
04:00 +15°C° 0 mm 4 mps 738 mmHg 78%
05:00 +15°C° 0 mm 4 mps 738 mmHg 76%
06:00 +16°C° 0 mm 5 mps 738 mmHg 68%
07:00 +19°C° 0 mm 6 mps 738 mmHg 60%
08:00 +20°C° 0 mm 6 mps 738 mmHg 52%
09:00 +21°C° 0 mm 6 mps 738 mmHg 50%
10:00 +22°C° 0 mm 6 mps 738 mmHg 49%
11:00 +23°C° 0 mm 7 mps 738 mmHg 47%
12:00 +23°C° 0 mm 7 mps 738 mmHg 49%
13:00 +23°C° 0 mm 7 mps 739 mmHg 51%
14:00 +23°C° 0 mm 7 mps 739 mmHg 53%
15:00 +23°C° 0 mm 7 mps 739 mmHg 52%
16:00 +23°C° 0 mm 6 mps 739 mmHg 51%
17:00 +24°C° 0 mm 6 mps 739 mmHg 51%
18:00 +22°C° 0 mm 5 mps 740 mmHg 58%
19:00 +21°C° 0 mm 4 mps 740 mmHg 65%
20:00 +19°C° 0 mm 3 mps 740 mmHg 72%
21:00 +18°C° 0 mm 3 mps 741 mmHg 77%
22:00 +17°C° 0 mm 3 mps 741 mmHg 83%
23:00 +16°C° 0 mm 3 mps 742 mmHg 89%

1 August, Sunday

Time Temperature Precipitation Wind Pressure Humidity
00:00 +16°C° 0 mm 3 mps 742 mmHg 91%
01:00 +16°C° 0 mm 2 mps 742 mmHg 93%
02:00 +15°C° 0 mm 2 mps 742 mmHg 95%
03:00 +16°C° 0 mm 2 mps 742 mmHg 92%
04:00 +16°C° 0 mm 2 mps 742 mmHg 90%
05:00 +17°C° 0 mm 2 mps 742 mmHg 87%
06:00 +18°C° 0 mm 2 mps 742 mmHg 81%
07:00 +19°C° 0 mm 3 mps 742 mmHg 74%
08:00 +20°C° 0 mm 4 mps 742 mmHg 68%
09:00 +19°C° 0.5 mm 3 mps 742 mmHg 74%
10:00 +19°C° 0.5 mm 3 mps 742 mmHg 80%
11:00 +18°C° 0.5 mm 3 mps 742 mmHg 85%
12:00 +19°C° 0.1 mm 4 mps 742 mmHg 81%
13:00 +20°C° 0.1 mm 4 mps 742 mmHg 77%
14:00 +21°C° 0.1 mm 4 mps 741 mmHg 72%
15:00 +21°C° 0.1 mm 4 mps 741 mmHg 71%
16:00 +22°C° 0.1 mm 4 mps 741 mmHg 71%
17:00 +22°C° 0.1 mm 4 mps 741 mmHg 70%
18:00 +21°C° 0.1 mm 3 mps 741 mmHg 76%
19:00 +19°C° 0.1 mm 3 mps 741 mmHg 83%
20:00 +18°C° 0.1 mm 2 mps 741 mmHg 89%
21:00 +18°C° 0 mm 2 mps 741 mmHg 90%
22:00 +17°C° 0 mm 2 mps 742 mmHg 91%
23:00 +17°C° 0 mm 2 mps 742 mmHg 92%

2 August, Monday

Time Temperature Precipitation Wind Pressure Humidity
00:00 +16°C° 0 mm 2 mps 742 mmHg 91%
01:00 +16°C° 0 mm 2 mps 742 mmHg 90%
02:00 +16°C° 0 mm 2 mps 743 mmHg 89%
03:00 +16°C° 0 mm 2 mps 743 mmHg 89%
04:00 +16°C° 0 mm 2 mps 743 mmHg 89%
05:00 +16°C° 0 mm 2 mps 743 mmHg 89%
06:00 +18°C° 0 mm 2 mps 743 mmHg 80%
07:00 +20°C° 0 mm 2 mps 743 mmHg 71%
08:00 +23°C° 0 mm 2 mps 743 mmHg 62%
09:00 +24°C° 0 mm 2 mps 742 mmHg 56%
10:00 +26°C° 0 mm 3 mps 742 mmHg 50%
11:00 +27°C° 0 mm 3 mps 742 mmHg 44%
12:00 +28°C° 0 mm 3 mps 741 mmHg 41%
13:00 +28°C° 0 mm 3 mps 741 mmHg 39%
14:00 +29°C° 0 mm 3 mps 741 mmHg 37%
15:00 +28°C° 0 mm 2 mps 740 mmHg 40%
16:00 +28°C° 0 mm 2 mps 739 mmHg 44%
17:00 +27°C° 0 mm 2 mps 739 mmHg 48%
18:00 +25°C° 0.1 mm 2 mps 738 mmHg 57%
19:00 +23°C° 0.1 mm 2 mps 737 mmHg 67%
20:00 +20°C° 0.1 mm 2 mps 737 mmHg 76%
21:00 +19°C° 0 mm 3 mps 736 mmHg 83%
22:00 +18°C° 0 mm 4 mps 736 mmHg 89%
23:00 +18°C° 0 mm 4 mps 736 mmHg 96%
Show more

We Need Your Consent

Meteoprog and our Service Providers may store and access personal data such as cookies, device identifiers or other similar technologies on your device and process such data to personalise content and ads, as well as provide social media features and to analyse the traffic.

  • Store and/or access information on your device

    Cookies, device identifiers or other information can be stored or accessed on your device for the purposes indicated above.

  • Personalised ads and content, ad and content measurement, audience insights, and products development

    Ads and content can be personalised based on a profile. More data can be added to better personalise ads and content. Ad and content performance can be measured. Insights about the audience who saw the ads and content can be derived. Such data can be used to develop or improve user’s experience, systems and software.

By clicking ‘I Agree’ you will allow the use of indicated cookies, device identifiers, web beacons or other similar technologies. Your settings can be changed in the browser on your device.

For certain purposes, legitimate interests may be relied on, rather than consent. You can read more about this in our Privacy and Cookie Policy.